Flag for Switzerland Weather past 2 weeks in Cham, Zug, Switzerland

Now
42 °F

Quite cool.


Feels Like: 34 °F
Forecast: 39 / 46 °F
Wind: 15 mph from West

Location: Zurich Town / Ville.

Current Time: Apr 1, 2015 at 7:55:44 PM

Latest Report: Apr 1, 2015 at 7:00 PM


Visibility: N/A

Pressure: 30.29 "Hg

Humidity: 55%

Dew point: 26 °F

Location of ChamLocation

Historic Weather in Cham — Graph

°F

Cham temperature yesterday

Maximum temperature yesterday: 58 °F (at 10:00 AM)
Minimum temperature yesterday: 46 °F (at 2:00 AM)
Average temperature yesterday: 51 °F

Past Weeks' High & Low Weather Summary

 TemperatureHumidityPressure
High62 °F (Mar 18, 2:40 PM)97% (Mar 22, 1:00 AM)30.31 "Hg (Mar 22, 1:00 AM)
Low35 °F (Mar 22, 5:00 AM)34% (Mar 24, 5:00 PM)29.59 "Hg (Mar 25, 2:00 PM)
Average46 °F71%30.01 "Hg
* Reported Mar 17 5:00 PM — Apr 1 6:00 PM, Cham, Weather by CustomWeather, © 2015

Note: Actual official high and low records may vary slightly from our data, if they occured in-between our weather recording intervals... More about our weather records

Advertising

Cham weather history for previous 24 hours

 ConditionsComfort  
Time TempWeatherWind HumidityBarometerVisibility
6:00 PM
Wed, Apr 1
42 °FQuite cool.12 mph61%30.27 "HgN/A
5:00 PM42 °FQuite cool.12 mph66%30.27 "HgN/A
4:00 PM38 °FChilly.18 mph80%30.28 "HgN/A
3:00 PM40 °FChilly.10 mph80%30.26 "HgN/A
2:00 PM36 °FPartly sunny.13 mph87%30.28 "HgN/A
1:00 PM37 °FChilly.10 mph87%30.27 "HgN/A
12:00 PM39 °FChilly.12 mph88%30.24 "HgN/A
11:00 AM39 °FChilly.15 mph76%30.25 "HgN/A
10:00 AM37 °FChilly.18 mph71%30.24 "HgN/A
9:00 AM42 °FQuite cool.20 mph54%30.18 "HgN/A
8:00 AM40 °FScattered clouds.20 mph57%30.16 "HgN/A
7:00 AM41 °FQuite cool.12 mph63%30.14 "HgN/A
6:00 AM40 °FQuite cool.12 mph69%30.13 "HgN/A
4:00 AM40 °FChilly.9 mph82%30.12 "HgN/A
3:00 AM39 °FChilly.18 mph81%30.14 "HgN/A
2:00 AM45 °FQuite cool.20 mph58%30.08 "HgN/A
1:00 AM46 °FCool.20 mph54%30.06 "HgN/A
12:00 AM47 °FCool.23 mph51%30.05 "HgN/A
11:00 PM
Tue, Mar 31
47 °FCool.18 mph53%30.03 "HgN/A
10:00 PM47 °FCool.16 mph59%30.02 "HgN/A
9:00 PM47 °FCool.17 mph63%30.01 "HgN/A
8:00 PM49 °FCool.15 mph63%29.98 "HgN/A
7:00 PM50 °FCool.20 mph65%29.94 "HgN/A
Weather by CustomWeather, © 2015

See weather overviewHow to use our weather pages